User: anonymous   Login
Location: Unspecified
(0.0000°N, 0.0000°E)
Time: 18:57:31
(UTC+00:00)
Language:

Tiros 10 - Orbit

View from above orbital plane
View from above orbital plane
View from above satellite
View from above satellite

Ground track
Ground track

The orbit data is extracted from the following two-line orbital elements,

1  1430U 65051A   17113.89918522 +.00000041 +00000-0 +25464-4 0  9992
2  1430 098.1340 270.7519 0057623 060.3458 300.3452 14.40185825714844
Epoch (UTC): 23 April 2017 21:34:49
Eccentricity: 0.0057623
inclination: 98.1340°
perigee height: 717 km
apogee height: 799 km
right ascension of ascending node: 270.7519°
argument of perigee: 60.3458°
revolutions per day: 14.40185825
mean anomaly at epoch: 300.3452°
orbit number at epoch: 71484

The dashed part of the orbit path shows where the satellite is in the earth's shadow,  

DLR